TimeCDT,TemperatureF,Dew PointF,Humidity,Sea Level PressureIn,VisibilityMPH,Wind Direction,Wind SpeedMPH,Gust SpeedMPH,PrecipitationIn,Events,Conditions,WindDirDegrees,DateUTC
12:53 AM,55.9,46.9,72,30.19,10.0,Calm,Calm,-,N/A,,Clear,0,2011-10-03 05:53:00
1:53 AM,55.0,46.9,74,30.20,10.0,Calm,Calm,-,N/A,,Clear,0,2011-10-03 06:53:00
2:53 AM,53.6,46.4,77,30.20,10.0,NE,3.5,-,N/A,,Clear,50,2011-10-03 07:53:00
3:53 AM,53.1,46.9,80,30.20,10.0,ENE,3.5,-,N/A,,Clear,60,2011-10-03 08:53:00
4:53 AM,51.1,46.0,83,30.21,10.0,ENE,4.6,-,N/A,,Clear,60,2011-10-03 09:53:00
5:53 AM,51.1,46.0,83,30.22,10.0,ENE,3.5,-,N/A,,Clear,60,2011-10-03 10:53:00
6:53 AM,50.0,46.0,86,30.24,10.0,NE,3.5,-,N/A,,Clear,50,2011-10-03 11:53:00
7:53 AM,50.0,46.0,86,30.25,10.0,ENE,4.6,-,N/A,,Clear,60,2011-10-03 12:53:00
8:53 AM,55.4,46.4,72,30.27,10.0,ENE,8.1,-,N/A,,Clear,70,2011-10-03 13:53:00
9:53 AM,62.1,45.0,53,30.28,10.0,NE,5.8,-,N/A,,Clear,50,2011-10-03 14:53:00
10:53 AM,68.0,45.0,43,30.27,10.0,Variable,3.5,-,N/A,,Clear,0,2011-10-03 15:53:00
11:53 AM,73.0,45.0,37,30.27,10.0,NNW,4.6,-,N/A,,Clear,340,2011-10-03 16:53:00
12:53 PM,75.2,42.8,31,30.25,10.0,ESE,3.5,-,N/A,,Clear,110,2011-10-03 17:53:00
1:53 PM,80.1,43.0,27,30.21,10.0,North,5.8,-,N/A,,Clear,350,2011-10-03 18:53:00
2:53 PM,81.0,41.0,24,30.18,10.0,Calm,Calm,-,N/A,,Clear,0,2011-10-03 19:53:00
3:53 PM,82.9,37.9,20,30.16,10.0,Calm,Calm,-,N/A,,Clear,0,2011-10-03 20:53:00
4:53 PM,82.9,37.0,19,30.15,10.0,Variable,4.6,-,N/A,,Clear,0,2011-10-03 21:53:00
5:53 PM,82.0,37.0,20,30.15,10.0,SSE,3.5,-,N/A,,Clear,160,2011-10-03 22:53:00
6:53 PM,78.1,36.0,22,30.15,10.0,Calm,Calm,-,N/A,,Clear,0,2011-10-03 23:53:00
7:53 PM,69.8,42.8,38,30.16,10.0,Calm,Calm,-,N/A,,Clear,0,2011-10-04 00:53:00
8:53 PM,68.0,45.0,43,30.17,10.0,Calm,Calm,-,N/A,,Clear,0,2011-10-04 01:53:00
9:53 PM,64.9,48.9,56,30.18,10.0,NE,4.6,-,N/A,,Clear,50,2011-10-04 02:53:00
10:53 PM,62.1,48.9,62,30.19,10.0,ENE,5.8,-,N/A,,Clear,60,2011-10-04 03:53:00
11:53 PM,61.0,48.0,62,30.19,10.0,ENE,4.6,-,N/A,,Clear,60,2011-10-04 04:53:00